Location: Silverdale
(47.6506°N, 122.6941°W)
Time: 15:54:19
(UTC+00:00)

Transit 2A - Pass Details

Date: 12 October 2022
Orbit: 598 x 959 km, 66.7° (Epoch: 30 November)

Event Time Altitude Azimuth Distance (km) Brightness Sun altitude
Exits shadow 12:31:29 - 332° (NNW) 2,543 8.5 -19.9°
Reaches altitude 10° 12:32:45 10° 337° (NNW) 2,074 8.1 -19.7°
Maximum altitude 12:37:10 39° 48° (NE) 1,035 7.1 -19.0°
Drops below altitude 10° 12:41:58 10° 117° (ESE) 2,262 9.2 -18.2°
Sets 12:44:36 0° 125° (SE) 3,248 10.0 -17.7°
